• In Germany
  • List of Countries
  • For 7 days
  • Water Temperature
  • Satellite Maps
  • Weather Map
  • Weather Widgets
  • user-avatar
    Login

    Hourly Weather Newcastle

    Today, 27 June, Tuesday

    Time Temperature Precipitation Wind Pressure Humidity
    00:00 +8°C° 0 mm 1 mps 768 mmHg 85%
    01:00 +7°C° 0 mm 2 mps 768 mmHg 80%
    02:00 +8°C° 0 mm 1 mps 768 mmHg 82%
    03:00 +8°C° 0 mm 1 mps 768 mmHg 83%
    04:00 +7°C° 0 mm 1 mps 768 mmHg 85%
    05:00 +7°C° 0 mm 1 mps 768 mmHg 87%
    06:00 +7°C° 0 mm 1 mps 768 mmHg 89%
    07:00 +6°C° 0 mm 1 mps 768 mmHg 92%
    08:00 +9°C° 0 mm 1 mps 768 mmHg 81%
    09:00 +13°C° 0 mm 1 mps 768 mmHg 70%
    10:00 +16°C° 0 mm 1 mps 769 mmHg 59%
    11:00 +18°C° 0 mm 1 mps 768 mmHg 57%
    12:00 +19°C° 0 mm 1 mps 768 mmHg 55%
    13:00 +19°C° 0 mm 1 mps 767 mmHg 53%
    14:00 +19°C° 0 mm 1 mps 767 mmHg 58%
    15:00 +18°C° 0 mm 1 mps 767 mmHg 63%
    16:00 +16°C° 0 mm 1 mps 767 mmHg 69%
    17:00 +15°C° 0 mm 1 mps 767 mmHg 75%
    18:00 +13°C° 0 mm 1 mps 767 mmHg 81%
    19:00 +12°C° 0 mm 1 mps 767 mmHg 87%
    20:00 +10°C° 0 mm 2 mps 767 mmHg 90%
    21:00 +10°C° 0 mm 2 mps 767 mmHg 92%
    22:00 +9°C° 0 mm 2 mps 768 mmHg 94%
    23:00 +9°C° 0 mm 2 mps 767 mmHg 95%

    Tomorrow, 28 June, Wednesday

    Time Temperature Precipitation Wind Pressure Humidity
    00:00 +9°C° 0 mm 2 mps 767 mmHg 96%
    01:00 +8°C° 0 mm 2 mps 767 mmHg 97%
    02:00 +8°C° 0.1 mm 2 mps 767 mmHg 97%
    03:00 +9°C° 0.1 mm 2 mps 766 mmHg 98%
    04:00 +9°C° 0.1 mm 2 mps 766 mmHg 98%
    05:00 +9°C° 0.2 mm 2 mps 766 mmHg 97%
    06:00 +10°C° 0.2 mm 2 mps 766 mmHg 96%
    07:00 +10°C° 0.2 mm 2 mps 766 mmHg 94%
    08:00 +12°C° 0.1 mm 2 mps 767 mmHg 88%
    09:00 +14°C° 0.1 mm 2 mps 767 mmHg 81%
    10:00 +15°C° 0.1 mm 2 mps 767 mmHg 75%
    11:00 +15°C° 0.6 mm 2 mps 766 mmHg 82%
    12:00 +14°C° 0.6 mm 2 mps 765 mmHg 88%
    13:00 +14°C° 0.6 mm 2 mps 765 mmHg 95%
    14:00 +14°C° 1.1 mm 2 mps 765 mmHg 96%
    15:00 +13°C° 1.1 mm 2 mps 765 mmHg 96%
    16:00 +13°C° 1.1 mm 2 mps 765 mmHg 97%
    17:00 +13°C° 0 mm 2 mps 765 mmHg 97%
    18:00 +12°C° 0 mm 2 mps 765 mmHg 98%
    19:00 +12°C° 0 mm 2 mps 765 mmHg 98%
    20:00 +12°C° 0.3 mm 2 mps 765 mmHg 98%
    21:00 +12°C° 0.3 mm 2 mps 765 mmHg 98%
    22:00 +12°C° 0.3 mm 2 mps 765 mmHg 98%
    23:00 +12°C° 0.1 mm 2 mps 765 mmHg 98%

    Day after tomorrow, 29 June, Thursday

    Time Temperature Precipitation Wind Pressure Humidity
    00:00 +10°C° 0.1 mm 2 mps 765 mmHg 98%
    01:00 +10°C° 0.1 mm 2 mps 764 mmHg 98%
    02:00 +10°C° 0 mm 2 mps 764 mmHg 98%
    03:00 +10°C° 0 mm 2 mps 764 mmHg 98%
    04:00 +10°C° 0 mm 2 mps 764 mmHg 97%
    05:00 +10°C° 0 mm 2 mps 764 mmHg 97%
    06:00 +9°C° 0 mm 2 mps 764 mmHg 97%
    07:00 +9°C° 0 mm 2 mps 764 mmHg 97%
    08:00 +10°C° 1.1 mm 2 mps 764 mmHg 97%
    09:00 +10°C° 1.1 mm 3 mps 764 mmHg 96%
    10:00 +10°C° 1.1 mm 3 mps 765 mmHg 96%
    11:00 +11°C° 0.4 mm 3 mps 764 mmHg 95%
    12:00 +11°C° 0.4 mm 3 mps 763 mmHg 94%
    13:00 +12°C° 0.4 mm 3 mps 762 mmHg 93%
    14:00 +12°C° 0.2 mm 3 mps 762 mmHg 94%
    15:00 +11°C° 0.2 mm 3 mps 762 mmHg 94%
    16:00 +11°C° 0.2 mm 3 mps 763 mmHg 95%
    17:00 +11°C° 0 mm 3 mps 763 mmHg 96%
    18:00 +11°C° 0 mm 3 mps 763 mmHg 96%
    19:00 +11°C° 0 mm 3 mps 763 mmHg 97%
    20:00 +10°C° 0 mm 4 mps 763 mmHg 95%
    21:00 +10°C° 0 mm 4 mps 763 mmHg 94%
    22:00 +10°C° 0 mm 4 mps 764 mmHg 92%
    23:00 +8°C° 0 mm 5 mps 763 mmHg 92%

    30 June, Friday

    Time Temperature Precipitation Wind Pressure Humidity
    00:00 +7°C° 0 mm 5 mps 763 mmHg 91%
    01:00 +6°C° 0 mm 5 mps 763 mmHg 91%
    02:00 +6°C° 0 mm 5 mps 763 mmHg 91%
    03:00 +6°C° 0 mm 5 mps 763 mmHg 92%
    04:00 +5°C° 0 mm 5 mps 763 mmHg 92%
    05:00 +5°C° 0 mm 5 mps 764 mmHg 92%
    06:00 +5°C° 0 mm 5 mps 764 mmHg 92%
    07:00 +5°C° 0 mm 5 mps 765 mmHg 92%
    08:00 +7°C° 0 mm 6 mps 765 mmHg 84%
    09:00 +8°C° 0 mm 6 mps 766 mmHg 75%
    10:00 +10°C° 0 mm 7 mps 766 mmHg 67%
    11:00 +10°C° 0 mm 6 mps 766 mmHg 60%
    12:00 +11°C° 0 mm 6 mps 766 mmHg 54%
    13:00 +11°C° 0 mm 6 mps 766 mmHg 47%
    14:00 +11°C° 0 mm 6 mps 766 mmHg 49%
    15:00 +10°C° 0 mm 6 mps 767 mmHg 52%
    16:00 +10°C° 0 mm 5 mps 767 mmHg 55%
    17:00 +8°C° 0.1 mm 5 mps 768 mmHg 58%
    18:00 +7°C° 0.1 mm 5 mps 768 mmHg 62%
    19:00 +4°C° 0.1 mm 6 mps 769 mmHg 66%
    20:00 +5°C° 0 mm 5 mps 769 mmHg 67%
    21:00 +5°C° 0 mm 5 mps 770 mmHg 67%
    22:00 +5°C° 0 mm 5 mps 770 mmHg 67%
    23:00 +5°C° 0 mm 5 mps 770 mmHg 68%

    1 July, Saturday

    Time Temperature Precipitation Wind Pressure Humidity
    00:00 +3°C° 0 mm 5 mps 770 mmHg 69%
    01:00 +3°C° 0 mm 5 mps 770 mmHg 70%
    02:00 +3°C° 0 mm 5 mps 770 mmHg 71%
    03:00 +3°C° 0 mm 5 mps 770 mmHg 72%
    04:00 +2°C° 0 mm 5 mps 770 mmHg 73%
    05:00 +2°C° 0 mm 5 mps 771 mmHg 73%
    06:00 +1°C° 0 mm 5 mps 771 mmHg 74%
    07:00 +1°C° 0 mm 5 mps 771 mmHg 74%
    08:00 +4°C° 0 mm 4 mps 771 mmHg 68%
    09:00 +6°C° 0 mm 4 mps 771 mmHg 63%
    10:00 +8°C° 0 mm 4 mps 771 mmHg 57%
    11:00 +11°C° 0 mm 4 mps 771 mmHg 56%
    12:00 +12°C° 0 mm 4 mps 770 mmHg 55%
    13:00 +14°C° 0 mm 4 mps 769 mmHg 54%
    14:00 +13°C° 0 mm 3 mps 769 mmHg 59%
    15:00 +13°C° 0 mm 3 mps 769 mmHg 64%
    16:00 +12°C° 0 mm 3 mps 769 mmHg 68%
    17:00 +10°C° 0 mm 2 mps 770 mmHg 78%
    18:00 +7°C° 0 mm 2 mps 770 mmHg 87%
    19:00 +4°C° 0 mm 2 mps 771 mmHg 97%
    20:00 +4°C° 0 mm 2 mps 771 mmHg 96%
    21:00 +4°C° 0 mm 2 mps 771 mmHg 96%
    22:00 +5°C° 0 mm 1 mps 771 mmHg 96%
    23:00 +5°C° 0 mm 1 mps 771 mmHg 96%

    2 July, Sunday

    Time Temperature Precipitation Wind Pressure Humidity
    00:00 +5°C° 0 mm 1 mps 770 mmHg 96%
    01:00 +6°C° 0 mm 1 mps 770 mmHg 96%
    02:00 +4°C° 0 mm 2 mps 770 mmHg 96%
    03:00 +4°C° 0 mm 2 mps 770 mmHg 97%
    04:00 +4°C° 0 mm 2 mps 770 mmHg 97%
    05:00 +4°C° 0 mm 2 mps 770 mmHg 97%
    06:00 +4°C° 0 mm 2 mps 770 mmHg 97%
    07:00 +4°C° 0 mm 2 mps 770 mmHg 97%
    08:00 +7°C° 0 mm 2 mps 770 mmHg 86%
    09:00 +10°C° 0 mm 2 mps 769 mmHg 76%
    10:00 +13°C° 0 mm 2 mps 769 mmHg 66%
    11:00 +15°C° 0 mm 2 mps 769 mmHg 60%
    12:00 +16°C° 0 mm 2 mps 768 mmHg 55%
    13:00 +17°C° 0 mm 2 mps 767 mmHg 49%
    14:00 +17°C° 0 mm 2 mps 767 mmHg 55%
    15:00 +16°C° 0 mm 2 mps 766 mmHg 61%
    16:00 +15°C° 0 mm 2 mps 766 mmHg 67%
    17:00 +13°C° 0 mm 3 mps 766 mmHg 73%
    18:00 +11°C° 0 mm 3 mps 766 mmHg 80%
    19:00 +9°C° 0 mm 3 mps 767 mmHg 86%
    20:00 +8°C° 0 mm 4 mps 766 mmHg 89%
    21:00 +8°C° 0 mm 4 mps 766 mmHg 92%
    22:00 +8°C° 0 mm 4 mps 766 mmHg 95%
    23:00 +7°C° 0 mm 4 mps 766 mmHg 94%
    Show more